Hourly Data Report for October 04, 2015

All times are specified in Local Standard Time (LST). Add 1 hour to adjust for Daylight Saving Time where and when it is observed.

RANKIN INLET A
NUNAVUT

62°48'38.000" N
92°06'53.000" W
32.30 m
2303405
71083
YRT

Download Data

Hourly Data (October 2015)
Hourly Data Report for October 4, 2015
Temp Definition
°C
Dew Point Temp Definition
°C
Rel Hum Definition
%
Wind Dir Definition
10's deg

Wind Spd Definition
km/h
Visibility Definition
km
Stn Press Definition
kPa
Hmdx Definition


Wind Chill Definition


Weather Definition


TIME
00:00 Legend Double Dagger -1.4 -3.0 89 36 23 24.1 102.65   -7 Mainly Clear
01:00 Legend Double Dagger -1.6 -3.5 87 36 22 24.1 102.71   -8 LegendNANA
02:00 Legend Double Dagger -1.3 -3.2 87 1 19 24.1 102.74   -7 LegendNANA
03:00 Legend Double Dagger -1.3 -3.7 84 2 21 24.1 102.73   -7 Clear
04:00 Legend Double Dagger -1.7 -4.2 83 3 14 24.1 102.76   -6 LegendNANA
05:00 Legend Double Dagger -1.9 -3.8 87 36 13 24.1 102.77   -6 LegendNANA
06:00 Legend Double Dagger -2.1 -3.7 89 36 14 24.1 102.76   -7 Cloudy
07:00 Legend Double Dagger -2.3 -3.7 90 36 14 24.1 102.69   -7 LegendNANA
08:00 Legend Double Dagger -1.5 -3.1 89 2 14 24.1 102.67   -6 LegendNANA
09:00 Legend Double Dagger -0.8 -3.0 85 1 14 24.1 102.64   -5 Cloudy
10:00 Legend Double Dagger -0.4 -3.1 82 2 16 16.1 102.61   -5 LegendNANA
11:00 Legend Double Dagger 0.0 -3.4 78 36 10 16.1 102.59   -3 LegendNANA
12:00 Legend Double Dagger 0.2 -3.5 76 4 9 16.1 102.51     Cloudy
13:00 Legend Double Dagger 0.3 -3.6 75 36 5 16.1 102.46     LegendNANA
14:00 Legend Double Dagger 0.6 -3.3 75 1 7 16.1 102.41     LegendNANA
15:00 Legend Double Dagger 0.7 -3.6 73 3 7 16.1 102.37     Mostly Cloudy
16:00 Legend Double Dagger 0.8 -3.1 75 2 9 16.1 102.33     LegendNANA
17:00 Legend Double Dagger 0.5 -3.6 74 2 8 16.1 102.30     LegendNANA
18:00 Legend Double Dagger 0.2 -3.7 75 35 8 16.1 102.27     Mostly Cloudy
19:00 Legend Double Dagger 0.0 -3.6 77 34 8 24.1 102.23   -3 LegendNANA
20:00 Legend Double Dagger -0.3 -3.7 78 34 10 24.1 102.19   -4 LegendNANA
21:00 Legend Double Dagger -0.6 -4.3 76 35 12 24.1 102.13   -5 Cloudy
22:00 Legend Double Dagger -1.1 -4.0 81 35 13 24.1 102.10   -5 LegendNANA
23:00 Legend Double Dagger -1.9 -4.6 82 3 9 24.1 102.06   -5 LegendNANA

Notes on Data Quality.

Legend

  • E = Estimated
  • M = Missing
  • NA = Not Available
  • ‡ = Partner data that is not subject to review by the National Climate Archives
Date modified: